Terug naar catalogus

STARLINK-34049

ActiefCommunicatieVLEO
NORAD 64042·PAYLOAD·🇺🇸 United States

Gelanceerd May 16, 2025 vanaf Vandenberg Space Force Base

Loading…

Volgende Passages (komende 24 uur)

TLE

VersSource: CelesTrak SupGP

Epoch: Sep 15, 2026, 02:36 UTC

1 64042C 25102W   26258.10881944  .00087754  00000+0  30523-2 0  2587
2 64042  70.0009 355.1870 0003411 269.1618 224.9985 15.29537790    13

Volg STARLINK-34049 in realtime met AllMySat

Download on the App Store